QPF
0.06 0.05 0.06 0.08 0.09 0.09 0.09 0.10 0.12 0.16 0.21 0.28 0.21 0.15 0.12 0.11 0.11 0.13 0.12 0.10 0.11 0.10 0.09 0.09 0.07 0.06 0.06 0.06 0.07 0.07 0.06 0.06 0.05 0.03 0.02 0.01 0.00 0.00 0.00 0.00 0.00 0.00 0.00
0.06 0.06 0.08 0.10 0.09 0.08 0.08 0.08 0.08 0.08 0.13 0.23 0.26 0.19 0.12 0.09 0.10 0.11 0.14 0.13 0.12 0.11 0.09 0.09 0.09 0.07 0.07 0.08 0.08 0.09 0.09 0.08 0.07 0.06 0.03 0.02 0.01 0.01 0.00 0.00 0.00 0.00 0.00
0.07 0.08 0.09 0.10 0.09 0.07 0.08 0.11 0.10 0.08 0.10 0.16 0.20 0.21 0.18 0.13 0.12 0.11 0.12 0.12 0.13 0.11 0.09 0.07 0.09 0.10 0.07 0.07 0.08 0.09 0.10 0.09 0.08 0.08 0.07 0.04 0.02 0.01 0.00 0.00 0.00 0.00 0.00
0.06 0.07 0.06 0.07 0.08 0.07 0.07 0.10 0.12 0.12 0.10 0.13 0.17 0.19 0.16 0.12 0.11 0.10 0.09 0.11 0.12 0.11 0.09 0.08 0.06 0.07 0.08 0.06 0.05 0.07 0.09 0.11 0.10 0.08 0.07 0.06 0.04 0.02 0.01 0.00 0.00 0.00 0.00
0.06 0.06 0.05 0.05 0.07 0.08 0.08 0.09 0.09 0.11 0.14 0.15 0.16 0.20 0.18 0.12 0.10 0.09 0.10 0.12 0.13 0.11 0.09 0.08 0.08 0.07 0.07 0.07 0.06 0.06 0.07 0.09 0.10 0.10 0.07 0.05 0.05 0.04 0.02 0.01 0.01 0.01 0.00
0.06 0.05 0.04 0.04 0.06 0.08 0.08 0.07 0.07 0.07 0.10 0.15 0.18 0.20 0.21 0.17 0.14 0.13 0.11 0.13 0.14 0.12 0.10 0.08 0.09 0.09 0.09 0.08 0.08 0.07 0.07 0.08 0.09 0.09 0.08 0.07 0.05 0.04 0.03 0.02 0.02 0.01 0.01
0.05 0.04 0.04 0.05 0.06 0.07 0.08 0.07 0.07 0.07 0.07 0.09 0.14 0.15 0.16 0.15 0.13 0.13 0.11 0.12 0.13 0.14 0.12 0.08 0.07 0.08 0.08 0.08 0.09 0.08 0.08 0.09 0.09 0.09 0.09 0.07 0.05 0.04 0.04 0.04 0.03 0.03 0.02
0.05 0.04 0.05 0.06 0.07 0.07 0.08 0.06 0.06 0.06 0.07 0.08 0.10 0.12 0.13 0.15 0.16 0.13 0.11 0.10 0.10 0.10 0.09 0.08 0.06 0.05 0.06 0.08 0.08 0.08 0.08 0.08 0.08 0.08 0.09 0.09 0.06 0.05 0.05 0.06 0.06 0.06 0.04
0.05 0.05 0.06 0.07 0.07 0.07 0.07 0.06 0.06 0.06 0.07 0.09 0.10 0.10 0.12 0.15 0.18 0.16 0.14 0.12 0.11 0.09 0.08 0.07 0.06 0.05 0.05 0.06 0.08 0.08 0.07 0.07 0.08 0.08 0.08 0.08 0.08 0.07 0.07 0.07 0.08 0.09 0.08
0.04 0.05 0.08 0.09 0.09 0.08 0.07 0.07 0.08 0.08 0.07 0.08 0.09 0.10 0.11 0.15 0.17 0.17 0.16 0.16 0.14 0.12 0.09 0.07 0.08 0.07 0.06 0.05 0.07 0.09 0.09 0.08 0.08 0.08 0.08 0.07 0.07 0.07 0.07 0.07 0.07 0.08 0.08
0.05 0.06 0.08 0.11 0.12 0.10 0.09 0.09 0.09 0.10 0.09 0.10 0.11 0.10 0.08 0.09 0.14 0.16 0.15 0.14 0.12 0.12 0.11 0.09 0.08 0.09 0.09 0.08 0.08 0.08 0.09 0.10 0.11 0.11 0.11 0.09 0.08 0.08 0.08 0.09 0.08 0.08 0.07
0.06 0.07 0.09 0.10 0.11 0.12 0.11 0.09 0.08 0.09 0.10 0.13 0.13 0.11 0.08 0.07 0.09 0.12 0.14 0.14 0.14 0.12 0.12 0.11 0.10 0.10 0.09 0.10 0.11 0.10 0.09 0.09 0.11 0.11 0.12 0.11 0.11 0.11 0.10 0.10 0.09 0.08 0.07
0.06 0.07 0.08 0.09 0.11 0.12 0.12 0.11 0.11 0.11 0.11 0.11 0.11 0.10 0.09 0.08 0.07 0.08 0.12 0.15 0.16 0.15 0.14 0.14 0.13 0.12 0.11 0.11 0.12 0.12 0.12 0.11 0.10 0.10 0.11 0.10 0.09 0.10 0.10 0.11 0.10 0.09 0.09
0.06 0.06 0.07 0.09 0.11 0.12 0.12 0.10 0.10 0.12 0.12 0.10 0.10 0.10 0.10 0.11 0.10 0.10 0.11 0.15 0.17 0.18 0.18 0.18 0.18 0.18 0.17 0.17 0.16 0.16 0.17 0.16 0.14 0.12 0.12 0.11 0.10 0.10 0.10 0.11 0.11 0.10 0.11
0.06 0.06 0.06 0.07 0.08 0.09 0.09 0.09 0.10 0.11 0.11 0.10 0.10 0.10 0.10 0.13 0.17 0.16 0.13 0.15 0.16 0.17 0.18 0.19 0.19 0.19 0.19 0.18 0.18 0.19 0.20 0.20 0.19 0.17 0.16 0.15 0.14 0.13 0.12 0.12 0.13 0.13 0.13
0.04 0.05 0.06 0.07 0.08 0.09 0.08 0.08 0.10 0.10 0.10 0.09 0.08 0.08 0.09 0.13 0.16 0.16 0.15 0.15 0.15 0.16 0.17 0.17 0.17 0.18 0.17 0.19 0.19 0.19 0.20 0.20 0.20 0.19 0.17 0.16 0.16 0.15 0.15 0.14 0.13 0.14 0.15
0.03 0.03 0.05 0.06 0.06 0.06 0.05 0.05 0.07 0.08 0.07 0.07 0.06 0.07 0.08 0.09 0.10 0.12 0.13 0.13 0.14 0.14 0.15 0.16 0.16 0.17 0.18 0.18 0.15 0.15 0.16 0.17 0.16 0.15 0.15 0.14 0.13 0.13 0.13 0.13 0.13 0.12 0.13
0.02 0.02 0.03 0.04 0.04 0.04 0.04 0.03 0.03 0.04 0.04 0.05 0.05 0.05 0.06 0.06 0.07 0.08 0.10 0.11 0.12 0.12 0.12 0.13 0.12 0.11 0.13 0.14 0.13 0.12 0.11 0.12 0.12 0.12 0.12 0.13 0.12 0.12 0.12 0.12 0.12 0.11 0.10
0.01 0.02 0.02 0.03 0.02 0.02 0.03 0.02 0.02 0.02 0.03 0.03 0.03 0.04 0.04 0.04 0.04 0.06 0.06 0.07 0.08 0.08 0.09 0.10 0.10 0.09 0.09 0.10 0.10 0.10 0.09 0.10 0.11 0.11 0.11 0.12 0.12 0.13 0.13 0.13 0.13 0.12 0.10
0.01 0.01 0.02 0.02 0.02 0.02 0.02 0.01 0.01 0.02 0.03 0.03 0.03 0.02 0.02 0.02 0.02 0.03 0.04 0.04 0.04 0.04 0.04 0.05 0.06 0.06 0.06 0.08 0.09 0.11 0.12 0.12 0.11 0.12 0.12 0.13 0.13 0.15 0.15 0.13 0.14 0.14 0.12
0.01 0.02 0.02 0.02 0.02 0.02 0.02 0.01 0.01 0.02 0.03 0.03 0.02 0.02 0.02 0.01 0.01 0.02 0.03 0.04 0.03 0.03 0.02 0.02 0.03 0.03 0.03 0.04 0.05 0.08 0.10 0.11 0.11 0.12 0.13 0.14 0.16 0.16 0.16 0.16 0.14 0.14 0.13
0.01 0.02 0.02 0.02 0.02 0.02 0.02 0.01 0.02 0.02 0.02 0.02 0.03 0.03 0.03 0.02 0.01 0.01 0.02 0.03 0.04 0.03 0.02 0.02 0.02 0.03 0.04 0.05 0.05 0.06 0.09 0.10 0.10 0.10 0.11 0.13 0.15 0.16 0.18 0.19 0.19 0.19 0.17
0.01 0.01 0.01 0.01 0.01 0.02 0.02 0.02 0.02 0.02 0.02 0.02 0.02 0.02 0.03 0.03 0.03 0.03 0.04 0.04 0.05 0.05 0.05 0.04 0.03 0.04 0.05 0.05 0.07 0.07 0.09 0.10 0.09 0.10 0.10 0.12 0.15 0.15 0.17 0.20 0.21 0.20 0.18
0.00 0.00 0.01 0.01 0.01 0.01 0.01 0.02 0.02 0.02 0.02 0.02 0.01 0.01 0.01 0.02 0.02 0.03 0.04 0.05 0.06 0.06 0.06 0.05 0.05 0.06 0.06 0.05 0.06 0.08 0.09 0.10 0.10 0.11 0.11 0.12 0.14 0.16 0.17 0.20 0.21 0.19 0.17
0.00 0.00 0.00 0.00 0.00 0.01 0.01 0.01 0.01 0.01 0.01 0.01 0.01 0.01 0.01 0.01 0.01 0.02 0.02 0.03 0.05 0.06 0.07 0.06 0.07 0.08 0.07 0.07 0.08 0.09 0.09 0.10 0.11 0.11 0.12 0.12 0.14 0.16 0.16 0.17 0.19 0.19 0.18
0.00 0.00 0.00 0.00 0.00 0.00 0.01 0.01 0.01 0.01 0.01 0.01 0.01 0.01 0.01 0.01 0.02 0.02 0.03 0.03 0.03 0.05 0.07 0.08 0.08 0.07 0.08 0.07 0.07 0.09 0.09 0.10 0.11 0.11 0.11 0.11 0.12 0.13 0.14 0.14 0.14 0.16 0.17
MSLP
1012.62 1012.21 1011.69 1011.08 1010.43 1009.79 1009.21 1008.75 1008.45 1008.30 1008.29 1008.39 1008.54 1008.69 1008.80 1008.85 1008.83 1008.78 1008.73 1008.73 1008.83 1009.07 1009.46 1010.01 1010.70 1011.50 1012.37 1013.26 1014.14 1014.98 1015.76 1016.46 1017.09 1017.65 1018.14 1018.58 1018.97 1019.31 1019.61 1019.84 1020.03 1020.15 1020.23
1012.84 1012.39 1011.81 1011.13 1010.38 1009.63 1008.93 1008.35 1007.93 1007.68 1007.60 1007.64 1007.77 1007.92 1008.06 1008.14 1008.17 1008.15 1008.12 1008.12 1008.20 1008.40 1008.75 1009.26 1009.91 1010.68 1011.53 1012.42 1013.32 1014.18 1014.99 1015.74 1016.41 1017.02 1017.57 1018.07 1018.53 1018.94 1019.31 1019.62 1019.87 1020.07 1020.20
1013.17 1012.68 1012.04 1011.27 1010.42 1009.55 1008.73 1008.02 1007.47 1007.10 1006.92 1006.90 1006.98 1007.12 1007.27 1007.39 1007.46 1007.49 1007.50 1007.54 1007.63 1007.82 1008.15 1008.62 1009.23 1009.95 1010.77 1011.63 1012.50 1013.35 1014.16 1014.91 1015.60 1016.23 1016.83 1017.38 1017.90 1018.39 1018.85 1019.25 1019.60 1019.88 1020.09
1013.60 1013.07 1012.36 1011.50 1010.55 1009.56 1008.61 1007.76 1007.08 1006.58 1006.29 1006.16 1006.18 1006.28 1006.42 1006.56 1006.68 1006.76 1006.84 1006.92 1007.06 1007.28 1007.61 1008.07 1008.65 1009.33 1010.10 1010.91 1011.74 1012.55 1013.32 1014.05 1014.73 1015.37 1015.98 1016.57 1017.15 1017.70 1018.23 1018.73 1019.17 1019.54 1019.84
1014.12 1013.53 1012.76 1011.82 1010.77 1009.67 1008.59 1007.61 1006.78 1006.14 1005.70 1005.46 1005.37 1005.40 1005.51 1005.64 1005.78 1005.92 1006.06 1006.21 1006.42 1006.69 1007.06 1007.54 1008.12 1008.79 1009.52 1010.29 1011.06 1011.82 1012.54 1013.22 1013.87 1014.49 1015.10 1015.70 1016.31 1016.91 1017.50 1018.07 1018.59 1019.05 1019.44
1014.69 1014.06 1013.23 1012.22 1011.08 1009.88 1008.68 1007.56 1006.59 1005.79 1005.20 1004.80 1004.58 1004.50 1004.52 1004.62 1004.75 1004.92 1005.11 1005.34 1005.63 1005.99 1006.43 1006.96 1007.57 1008.26 1008.98 1009.72 1010.46 1011.17 1011.84 1012.47 1013.08 1013.66 1014.25 1014.84 1015.45 1016.08 1016.70 1017.31 1017.89 1018.42 1018.89
1015.29 1014.63 1013.75 1012.68 1011.47 1010.19 1008.89 1007.65 1006.54 1005.58 1004.81 1004.24 1003.85 1003.61 1003.51 1003.52 1003.61 1003.77 1004.00 1004.29 1004.66 1005.11 1005.64 1006.26 1006.94 1007.66 1008.41 1009.16 1009.89 1010.57 1011.21 1011.80 1012.36 1012.91 1013.47 1014.04 1014.63 1015.25 1015.89 1016.52 1017.14 1017.71 1018.24
1015.87 1015.19 1014.29 1013.19 1011.94 1010.59 1009.22 1007.88 1006.64 1005.54 1004.59 1003.83 1003.25 1002.83 1002.56 1002.44 1002.44 1002.55 1002.77 1003.09 1003.53 1004.06 1004.69 1005.40 1006.16 1006.97 1007.77 1008.56 1009.30 1009.98 1010.61 1011.18 1011.72 1012.24 1012.76 1013.30 1013.87 1014.47 1015.10 1015.74 1016.37 1016.97 1017.54
1016.40 1015.73 1014.82 1013.72 1012.46 1011.09 1009.68 1008.27 1006.93 1005.70 1004.60 1003.65 1002.86 1002.25 1001.79 1001.50 1001.37 1001.39 1001.56 1001.87 1002.33 1002.92 1003.63 1004.42 1005.27 1006.15 1007.03 1007.87 1008.65 1009.36 1010.00 1010.58 1011.11 1011.61 1012.11 1012.63 1013.18 1013.76 1014.36 1014.99 1015.62 1016.25 1016.85
1016.85 1016.20 1015.33 1014.25 1013.02 1011.67 1010.26 1008.83 1007.43 1006.11 1004.88 1003.77 1002.80 1001.99 1001.34 1000.86 1000.57 1000.46 1000.54 1000.80 1001.24 1001.84 1002.58 1003.42 1004.34 1005.28 1006.22 1007.11 1007.94 1008.69 1009.35 1009.95 1010.49 1010.99 1011.49 1011.99 1012.52 1013.08 1013.67 1014.29 1014.92 1015.55 1016.18
1017.22 1016.62 1015.80 1014.79 1013.62 1012.33 1010.97 1009.57 1008.16 1006.79 1005.49 1004.27 1003.16 1002.18 1001.35 1000.70 1000.23 999.97 999.93 1000.09 1000.46 1001.01 1001.73 1002.57 1003.49 1004.45 1005.41 1006.33 1007.19 1007.97 1008.66 1009.28 1009.84 1010.36 1010.86 1011.36 1011.88 1012.42 1013.00 1013.61 1014.24 1014.88 1015.53
1017.52 1016.98 1016.24 1015.32 1014.25 1013.06 1011.79 1010.46 1009.10 1007.75 1006.42 1005.14 1003.95 1002.85 1001.89 1001.08 1000.47 1000.05 999.86 999.90 1000.15 1000.61 1001.24 1002.02 1002.89 1003.81 1004.74 1005.65 1006.50 1007.28 1007.98 1008.61 1009.18 1009.71 1010.21 1010.72 1011.23 1011.77 1012.34 1012.94 1013.56 1014.20 1014.86
1017.76 1017.30 1016.66 1015.86 1014.91 1013.85 1012.70 1011.48 1010.21 1008.92 1007.63 1006.36 1005.13 1003.98 1002.94 1002.03 1001.30 1000.76 1000.43 1000.32 1000.43 1000.75 1001.25 1001.90 1002.66 1003.48 1004.32 1005.16 1005.95 1006.69 1007.37 1007.98 1008.55 1009.07 1009.58 1010.08 1010.59 1011.11 1011.66 1012.24 1012.85 1013.48 1014.14
1018.00 1017.63 1017.09 1016.41 1015.60 1014.68 1013.66 1012.57 1011.42 1010.24 1009.03 1007.82 1006.62 1005.48 1004.42 1003.47 1002.67 1002.04 1001.59 1001.35 1001.32 1001.48 1001.81 1002.30 1002.89 1003.55 1004.26 1004.97 1005.66 1006.31 1006.93 1007.49 1008.03 1008.53 1009.01 1009.49 1009.97 1010.47 1010.99 1011.53 1012.10 1012.70 1013.33
1018.24 1017.97 1017.54 1016.98 1016.30 1015.51 1014.63 1013.67 1012.66 1011.59 1010.49 1009.38 1008.27 1007.19 1006.17 1005.24 1004.42 1003.74 1003.22 1002.88 1002.71 1002.72 1002.88 1003.18 1003.58 1004.06 1004.58 1005.13 1005.67 1006.21 1006.72 1007.21 1007.68 1008.13 1008.57 1009.00 1009.44 1009.89 1010.35 1010.83 1011.34 1011.87 1012.45
1018.52 1018.34 1018.01 1017.56 1016.99 1016.31 1015.55 1014.72 1013.82 1012.87 1011.89 1010.90 1009.90 1008.92 1007.98 1007.11 1006.33 1005.66 1005.12 1004.71 1004.45 1004.32 1004.33 1004.45 1004.66 1004.94 1005.27 1005.64 1006.02 1006.41 1006.80 1007.18 1007.56 1007.93 1008.30 1008.67 1009.04 1009.41 1009.79 1010.18 1010.59 1011.03 1011.51
1018.83 1018.73 1018.49 1018.12 1017.64 1017.06 1016.38 1015.64 1014.84 1013.99 1013.13 1012.24 1011.36 1010.50 1009.68 1008.90 1008.20 1007.58 1007.05 1006.63 1006.31 1006.10 1005.98 1005.95 1006.00 1006.10 1006.25 1006.44 1006.66 1006.89 1007.15 1007.41 1007.68 1007.96 1008.24 1008.52 1008.80 1009.07 1009.34 1009.62 1009.92 1010.24 1010.60
1019.14 1019.11 1018.95 1018.64 1018.22 1017.70 1017.09 1016.41 1015.67 1014.91 1014.12 1013.34 1012.56 1011.81 1011.10 1010.44 1009.83 1009.29 1008.82 1008.42 1008.10 1007.84 1007.65 1007.51 1007.43 1007.39 1007.39 1007.42 1007.49 1007.58 1007.70 1007.85 1008.01 1008.18 1008.37 1008.55 1008.72 1008.89 1009.04 1009.20 1009.36 1009.54 1009.77
1019.44 1019.47 1019.35 1019.10 1018.72 1018.24 1017.66 1017.02 1016.32 1015.60 1014.88 1014.16 1013.47 1012.82 1012.21 1011.65 1011.14 1010.69 1010.29 1009.95 1009.64 1009.38 1009.16 1008.96 1008.80 1008.65 1008.54 1008.45 1008.39 1008.36 1008.37 1008.40 1008.45 1008.53 1008.61 1008.69 1008.77 1008.82 1008.86 1008.90 1008.94 1008.99 1009.09
1019.69 1019.76 1019.69 1019.47 1019.13 1018.67 1018.12 1017.50 1016.83 1016.14 1015.45 1014.78 1014.15 1013.57 1013.03 1012.56 1012.14 1011.77 1011.44 1011.15 1010.89 1010.65 1010.42 1010.20 1009.98 1009.78 1009.59 1009.41 1009.25 1009.12 1009.03 1008.96 1008.92 1008.90 1008.89 1008.88 1008.86 1008.83 1008.77 1008.70 1008.63 1008.58 1008.56
1019.87 1019.97 1019.94 1019.76 1019.44 1019.02 1018.49 1017.90 1017.25 1016.59 1015.93 1015.29 1014.70 1014.15 1013.67 1013.25 1012.89 1012.58 1012.30 1012.07 1011.84 1011.63 1011.41 1011.18 1010.95 1010.70 1010.46 1010.21 1009.98 1009.78 1009.59 1009.44 1009.32 1009.22 1009.12 1009.03 1008.94 1008.82 1008.69 1008.54 1008.40 1008.27 1008.19
1019.95 1020.08 1020.08 1019.94 1019.67 1019.29 1018.81 1018.25 1017.64 1017.01 1016.38 1015.77 1015.20 1014.69 1014.23 1013.84 1013.51 1013.22 1012.99 1012.78 1012.58 1012.38 1012.17 1011.94 1011.69 1011.42 1011.13 1010.84 1010.55 1010.27 1010.01 1009.78 1009.58 1009.40 1009.23 1009.07 1008.91 1008.74 1008.56 1008.37 1008.19 1008.03 1007.91
1019.92 1020.08 1020.12 1020.03 1019.81 1019.49 1019.08 1018.58 1018.03 1017.46 1016.87 1016.30 1015.75 1015.26 1014.82 1014.43 1014.10 1013.83 1013.59 1013.38 1013.18 1012.98 1012.77 1012.53 1012.26 1011.96 1011.63 1011.29 1010.95 1010.60 1010.28 1009.97 1009.69 1009.43 1009.19 1008.97 1008.76 1008.54 1008.34 1008.13 1007.95 1007.79 1007.69
1019.79 1019.97 1020.05 1020.01 1019.87 1019.63 1019.30 1018.89 1018.42 1017.92 1017.40 1016.88 1016.38 1015.91 1015.47 1015.09 1014.75 1014.46 1014.21 1013.97 1013.75 1013.53 1013.29 1013.02 1012.72 1012.39 1012.02 1011.63 1011.23 1010.82 1010.42 1010.03 1009.67 1009.33 1009.02 1008.74 1008.47 1008.22 1008.00 1007.80 1007.63 1007.52 1007.46
1019.56 1019.76 1019.88 1019.90 1019.83 1019.67 1019.44 1019.14 1018.78 1018.37 1017.94 1017.49 1017.05 1016.61 1016.20 1015.82 1015.47 1015.15 1014.86 1014.60 1014.34 1014.07 1013.80 1013.49 1013.15 1012.77 1012.36 1011.92 1011.45 1010.97 1010.50 1010.03 1009.58 1009.15 1008.76 1008.41 1008.09 1007.80 1007.57 1007.37 1007.24 1007.17 1007.17
1019.25 1019.47 1019.61 1019.68 1019.68 1019.61 1019.48 1019.29 1019.04 1018.75 1018.42 1018.06 1017.69 1017.31 1016.93 1016.56 1016.21 1015.88 1015.56 1015.25 1014.95 1014.64 1014.31 1013.96 1013.58 1013.16 1012.70 1012.21 1011.68 1011.13 1010.58 1010.02 1009.48 1008.97 1008.49 1008.05 1007.67 1007.34 1007.07 1006.88 1006.77 1006.74 1006.81
Thickness
5568 5570 5573 5577 5582 5585 5591 5596 5602 5607 5612 5617 5622 5628 5632 5636 5640 5644 5649 5651 5652 5654 5654 5655 5656 5658 5659 5659 5659 5659 5658 5658 5658 5657 5655 5657 5659 5661 5661 5661 5661 5660 5658
5565 5567 5569 5573 5575 5579 5583 5588 5593 5598 5603 5608 5613 5618 5623 5627 5631 5636 5639 5642 5644 5646 5647 5648 5650 5651 5652 5651 5652 5652 5651 5652 5652 5652 5649 5648 5650 5654 5655 5655 5654 5654 5653
5558 5563 5566 5568 5569 5573 5576 5580 5585 5590 5595 5600 5604 5608 5611 5615 5620 5625 5628 5633 5635 5637 5639 5640 5642 5643 5645 5646 5646 5646 5645 5645 5645 5646 5646 5645 5647 5649 5649 5649 5648 5648 5647
5553 5555 5558 5561 5563 5565 5568 5573 5577 5582 5587 5592 5596 5600 5605 5610 5614 5617 5621 5625 5627 5629 5631 5632 5634 5635 5637 5638 5639 5640 5639 5639 5638 5639 5642 5644 5645 5641 5641 5641 5642 5641 5640
5548 5549 5551 5554 5556 5558 5561 5565 5569 5573 5578 5583 5588 5592 5597 5602 5606 5609 5613 5616 5618 5620 5622 5624 5626 5627 5629 5630 5631 5631 5632 5633 5634 5634 5634 5633 5634 5637 5636 5635 5635 5633 5633
5544 5545 5546 5547 5550 5552 5554 5556 5560 5564 5569 5574 5580 5584 5589 5593 5596 5600 5604 5607 5610 5612 5614 5616 5618 5619 5621 5623 5623 5623 5624 5626 5627 5628 5628 5628 5628 5630 5629 5629 5628 5627 5627
5539 5540 5541 5542 5542 5543 5545 5548 5553 5557 5561 5567 5571 5576 5581 5584 5588 5592 5595 5599 5601 5604 5606 5607 5610 5611 5613 5614 5614 5614 5616 5617 5618 5619 5622 5622 5624 5624 5624 5621 5620 5619 5619
5534 5534 5534 5535 5536 5537 5540 5543 5547 5551 5555 5560 5564 5569 5573 5577 5581 5584 5587 5591 5593 5595 5597 5599 5601 5603 5605 5605 5606 5606 5608 5608 5610 5611 5613 5614 5615 5615 5616 5615 5611 5608 5608
5529 5528 5528 5529 5531 5533 5535 5538 5541 5545 5548 5553 5557 5562 5565 5569 5573 5576 5578 5580 5583 5586 5588 5589 5592 5594 5596 5597 5597 5598 5599 5600 5602 5603 5604 5605 5607 5607 5607 5606 5605 5602 5601
5524 5524 5524 5525 5525 5527 5529 5532 5535 5538 5541 5545 5550 5554 5557 5561 5565 5568 5570 5572 5574 5576 5579 5581 5583 5585 5587 5588 5588 5589 5591 5591 5594 5594 5596 5597 5598 5598 5598 5597 5596 5596 5595
5519 5519 5520 5520 5521 5523 5525 5527 5529 5532 5536 5539 5543 5547 5550 5554 5558 5561 5563 5564 5566 5568 5570 5572 5574 5575 5577 5578 5579 5581 5583 5583 5585 5586 5587 5589 5589 5588 5588 5587 5587 5587 5587
5516 5516 5516 5517 5518 5519 5521 5522 5524 5527 5530 5533 5537 5540 5543 5547 5551 5553 5555 5556 5558 5559 5561 5563 5564 5567 5568 5569 5571 5572 5573 5574 5577 5579 5579 5580 5579 5579 5579 5578 5578 5579 5579
5514 5514 5514 5514 5515 5515 5516 5518 5519 5522 5524 5527 5530 5533 5536 5539 5543 5545 5546 5548 5550 5551 5552 5553 5555 5556 5557 5559 5560 5562 5563 5564 5567 5569 5570 5571 5570 5571 5570 5571 5571 5571 5570
5512 5511 5511 5511 5511 5511 5511 5512 5513 5515 5517 5521 5524 5526 5528 5531 5534 5536 5538 5541 5542 5543 5543 5544 5545 5546 5547 5548 5549 5550 5551 5553 5556 5558 5560 5561 5561 5563 5563 5563 5564 5563 5561
5510 5508 5507 5507 5506 5506 5507 5508 5508 5510 5512 5515 5517 5518 5521 5523 5526 5528 5530 5532 5533 5534 5534 5534 5535 5535 5536 5537 5537 5538 5540 5542 5545 5547 5549 5550 5551 5552 5553 5554 5554 5553 5552
5508 5505 5503 5502 5502 5502 5502 5503 5503 5504 5506 5509 5510 5512 5514 5515 5517 5518 5521 5522 5523 5523 5523 5523 5524 5524 5524 5524 5524 5526 5528 5530 5533 5535 5538 5539 5540 5541 5542 5543 5543 5543 5543
5507 5503 5501 5499 5498 5497 5497 5497 5498 5499 5501 5503 5504 5505 5507 5507 5507 5508 5510 5510 5511 5512 5512 5512 5512 5511 5511 5511 5512 5513 5515 5518 5520 5523 5525 5528 5530 5531 5532 5532 5532 5532 5532
5505 5502 5499 5497 5495 5494 5493 5493 5493 5495 5496 5496 5497 5497 5497 5498 5499 5500 5500 5500 5501 5501 5500 5500 5499 5498 5498 5498 5499 5501 5502 5505 5508 5511 5514 5516 5518 5519 5520 5521 5521 5521 5521
5503 5500 5496 5494 5492 5490 5489 5489 5488 5489 5490 5490 5489 5489 5489 5490 5491 5491 5491 5491 5491 5490 5488 5487 5487 5486 5487 5486 5487 5488 5490 5492 5495 5499 5502 5504 5506 5508 5509 5509 5509 5510 5511
5499 5495 5492 5490 5488 5486 5485 5484 5484 5483 5483 5482 5482 5482 5482 5483 5482 5482 5482 5482 5481 5480 5478 5477 5476 5476 5476 5475 5475 5475 5478 5481 5484 5487 5490 5492 5494 5496 5496 5499 5499 5499 5500
5495 5491 5488 5486 5484 5481 5480 5480 5479 5478 5476 5476 5476 5476 5476 5475 5475 5474 5474 5473 5473 5472 5471 5470 5469 5467 5466 5465 5464 5465 5467 5469 5472 5475 5478 5481 5482 5484 5486 5487 5489 5490 5489
5491 5487 5484 5482 5479 5476 5475 5475 5474 5472 5471 5470 5470 5470 5469 5468 5467 5467 5466 5465 5465 5464 5464 5463 5461 5460 5458 5456 5456 5456 5457 5458 5460 5463 5467 5469 5470 5471 5473 5475 5478 5478 5476
5487 5483 5480 5477 5475 5472 5470 5470 5468 5466 5465 5464 5464 5463 5462 5461 5459 5459 5458 5458 5457 5456 5455 5453 5452 5450 5448 5447 5447 5446 5447 5447 5448 5451 5453 5456 5457 5458 5459 5461 5462 5462 5462
5482 5478 5475 5473 5471 5467 5465 5463 5461 5458 5457 5457 5456 5455 5454 5453 5451 5450 5449 5447 5446 5445 5444 5443 5441 5440 5439 5438 5437 5437 5437 5437 5437 5439 5440 5442 5443 5444 5445 5446 5446 5447 5448
5476 5472 5469 5468 5466 5462 5459 5456 5453 5450 5449 5449 5448 5447 5445 5443 5441 5439 5437 5435 5434 5431 5430 5430 5429 5428 5428 5427 5425 5425 5426 5427 5427 5427 5428 5429 5430 5431 5432 5433 5433 5433 5433
5469 5466 5463 5461 5459 5456 5453 5449 5446 5443 5441 5440 5439 5437 5435 5432 5430 5429 5427 5424 5421 5420 5418 5417 5416 5416 5416 5416 5416 5416 5415 5415 5415 5415 5415 5416 5417 5417 5418 5419 5419 5420 5421